Home   Weather   Novato   Past weeks
Flag for USA

Past Weather in Novato, California, USA — Yesterday and Last 2 Weeks

Now
49 °F

Fog.


Feels Like: 49 °F
Forecast: 72 / 42 °F
Wind: No wind

Location: Napa County Airport

Current Time: Oct 15, 2019 at 10:23:37 am

Latest Report: Oct 15, 2019 at 10:01 am


Visibility: 2 mi

Pressure: 30.13 "Hg

Humidity: 93%

Dew Point: 47 °F

Location of NovatoLocation

Past Weather in Novato — Graph

°F

Novato Temperature Yesterday

Maximum temperature yesterday: 71 °F (at 3:54 pm)
Minimum temperature yesterday: 37 °F (at 4:19 am)
Average temperature yesterday: 51 °F

High & Low Weather Summary for the Past Weeks

 TemperatureHumidityPressure
High87 °F (Oct 6, 3:54 pm)100% (Oct 14, 5:35 am)30.13 "Hg (Oct 14, 5:35 am)
Low37 °F (Oct 14, 4:19 am)16% (Oct 6, 3:54 pm)29.77 "Hg (Oct 8, 5:54 pm)
Average58 °F61%29.95 "Hg
* Reported Sep 30 8:54 am — Oct 15 8:54 am, Novato. Weather by CustomWeather, © 2019

Note: Actual official high and low records may vary slightly from our data, if they occured in-between our weather recording intervals... More about our weather records

Advertising

Novato Weather History for the Previous 24 Hours

Scroll right to see more
 ConditionsComfort  
Time TempWeatherWind HumidityBarometerVisibility
8:54 am
Tue, Oct 15
47 °FFog.5 mph93%30.09 "Hg2 mi
8:25 am45 °FFog.No wind97%30.11 "Hg0 mi
8:03 am40 °FSunny.No wind100%30.11 "Hg10 mi
7:54 am39 °FFog.No wind100%30.08 "Hg0 mi
7:28 am42 °FFog.No wind92%30.10 "Hg0 mi
7:20 am42 °FFog.No wind92%30.10 "Hg1 mi
6:54 am43 °FPassing clouds.3 mph97%30.06 "Hg8 mi
6:34 am43 °FFog.3 mph97%30.08 "Hg3 mi
11:54 pm
Mon, Oct 14
47 °FClear.5 mph93%30.00 "Hg10 mi
10:54 pm47 °FClear.6 mph90%29.99 "Hg10 mi
9:54 pm52 °FClear.3 mph80%29.99 "Hg10 mi
8:54 pm53 °FClear.5 mph83%29.97 "Hg10 mi
7:54 pm55 °FClear.6 mph74%29.96 "Hg10 mi
6:54 pm59 °FClear.8 mph78%29.93 "Hg10 mi
5:54 pm64 °FSunny.8 mph68%29.92 "Hg10 mi
4:54 pm69 °FSunny.12 mph47%29.92 "Hg10 mi
3:54 pm71 °FSunny.8 mph38%29.92 "Hg10 mi
2:54 pm70 °FSunny.10 mph39%29.91 "Hg10 mi
1:54 pm68 °FSunny.7 mph45%29.93 "Hg10 mi
12:54 pm63 °FSunny.5 mph56%29.95 "Hg10 mi
11:54 am60 °FSunny.7 mph69%29.96 "Hg10 mi
11:01 am56 °FSunny.5 mph84%30.00 "Hg10 mi
Weather by CustomWeather, © 2019

See weather overview